Regional Weather Roundup
Issued by NWS

Home | Current Version | Previous Version | Text Only | Print | Product List | Glossary On
Versions: 1 2 3 4 5 6 7 8 9 10 11 12 13 14 15 16 17 18 19 20 21 22 23 24 25 26 27 28 29 30 31 32 33 34 35 36 37 38 39 40 41 42 43 44 45 46 47 48 49 50
000
ASUS43 KIND 210400
RWRIN

WEATHER ROUNDUP FOR INDIANA
NATIONAL WEATHER SERVICE INDIANAPOLIS IN
1200 AM EDT MON AUG 21 2017

NOTE: "FAIR" INDICATES FEW OR NO CLOUDS BELOW 12,000 FEET WITH NO
SIGNIFICANT WEATHER AND/OR OBSTRUCTIONS TO VISIBILITY.

* - STATION DOES NOT REPORT WEATHER SUCH AS PRECIPITATION OR FOG.

+ - STATION NOT QUALITY CONTROLLED BY THE NATIONAL WEATHER SERVICE.
    USE DATA WITH CAUTION...ESPECIALLY DEWPOINT AND RELATIVE
    HUMIDITY OBSERVATIONS.

INZ001>003-010>013-019-020-210500-
NORTHWEST INDIANA

CITY           SKY/WX    TMP DP  RH WIND       PRES   REMARKS
MICHIGAN CITY+ CLOUDY    77  64  65 CALM      30.05S
MONTICELLO +   CLOUDY    76  67  73 SE3       30.05S
RENSSELAER +   CLOUDY    77  64  65 E6        30.04S

$$

LMZ046-743>745-210500-
SOUTHERN LAKE MICHIGAN

STATION/POSITION TIME  TEMP    WIND        PRES    WAVE
                       AIR SEA DIR/SP/G            HT
                 (UTC) (F)     (DEG/KT/KT) (MB)    (FT)
BURNS HARBOR     0340   81     160/  9/ 13 1017.3F
MICHIGAN CITY    0330   79     140/  7/  8   N/A
5NW MICH CITY    0350   78 76  160/  6/  8   N/A     1

$$

INZ004-005-014>016-021>024-210500-
NORTH CENTRAL INDIANA

CITY           SKY/WX    TMP DP  RH WIND       PRES   REMARKS
GOSHEN         MOCLDY    73  67  81 SE5       30.08S
SOUTH BEND     CLOUDY    76  68  76 S7        30.07S

$$

INZ006>009-017-018-025>027-210500-
NORTHEAST INDIANA

CITY           SKY/WX    TMP DP  RH WIND       PRES   REMARKS
FORT WAYNE     MOCLDY    70  64  81 CALM      30.10R

$$

INZ028-029-035-036-043>045-051>053-210500-
WEST CENTRAL INDIANA

CITY           SKY/WX    TMP DP  RH WIND       PRES   REMARKS
LAFAYETTE      CLEAR     74  69  85 SE3       30.05S
TERRE HAUTE    CLEAR     73  69  87 CALM      30.07R

$$

INZ030>032-037>040-046>048-054>057-064-065-210500-
CENTRAL INDIANA

CITY           SKY/WX    TMP DP  RH WIND       PRES   REMARKS
GREENWOOD *+   CLEAR     73  69  89 S3        30.10R
INDIANAPOLIS   PTCLDY    76  69  79 SE7       30.07S
-EAGLE CREEK   CLEAR     77  68  73 CALM      30.07F
KOKOMO +       PTCLDY    69  65  86 SE6       30.09S
MT COMFORT *+  CLEAR     72  68  88 S5        30.10R
SHELBYVILLE    CLEAR     71  66  84 SE3       30.09R

$$

INZ033-034-041-042-049-050-058-059-210500-
EAST CENTRAL INDIANA

CITY           SKY/WX    TMP DP  RH WIND       PRES   REMARKS
MUNCIE         CLEAR     71  67  87 CALM      30.10S
RICHMOND +     CLEAR     68  64  88 SE3       30.13S

$$

INZ060-061-067>069-081>083-085>088-210500-
SOUTHWEST INDIANA

CITY           SKY/WX    TMP DP  RH WIND       PRES   REMARKS
EVANSVILLE     CLEAR     78  69  73 SW5       30.09S
HUNTINGBURG +  CLEAR     76  71  85 S7        30.10R

$$

INZ062-063-066-070>080-084-089>092-210500-
SOUTH CENTRAL AND SOUTHEAST INDIANA

CITY           SKY/WX    TMP DP  RH WIND       PRES   REMARKS
BLOOMINGTON    CLEAR     71  66  84 CALM      30.10R
MADISON *+     CLEAR     72  68  88 CALM      30.13S
SEYMOUR +      PTCLDY    73  72  94 S6        30.09R

$$





USA.gov is the U.S. government's official web portal to all federal, state and local government web resources and services.